OE3FJB-25 Weather Reports


time (UTC)temp
C
wind
direction
speed
KPH
gust
KPH
rain 1hr
cm
rain 24hr
cm
rain mn
cm
humidity
%
barometer
mb
20260502200016 12 0.0 0.0 0.00 0.00 0.00 62 1022.7
20260502195017 13 0.0 0.0 0.00 0.00 0.00 60 1022.8
20260502194018 13 0.0 0.0 0.00 0.00 0.00 58 1022.9
20260502193020 13 0.0 0.0 0.00 0.00 0.00 56 1022.9
20260502192021 13 0.0 0.0 0.00 0.00 0.00 52 1023.0
20260502191023 14 0.0 0.0 0.00 0.00 0.00 48 1023.0
20260502190024 15 0.0 0.0 0.00 0.00 0.00 46 1023.0
20260502185025 15 0.0 0.0 0.00 0.00 0.00 44 1023.1
20260502184027 16 0.0 0.0 0.00 0.00 0.00 42 1023.0
20260502183028 16 0.0 0.0 0.00 0.00 0.00 41 1023.0
20260502182029 16 0.0 0.0 0.00 0.00 0.00 39 1022.9
20260502181031 16 0.0 0.0 0.00 0.00 0.00 38 1022.9
20260502164043 18 0.0 0.0 0.00 0.00 0.00 32 1023.2
20260502163045 18 0.0 0.0 0.00 0.00 0.00 32 1023.2
20260502162046 18 0.0 0.0 0.00 0.00 0.00 31 1023.4
20260502161048 19 0.0 0.0 0.00 0.00 0.00 31 1023.4
20260502152055 20 0.0 0.0 0.00 0.00 0.00 29 1023.9
20260502151056 20 0.0 0.0 0.00 0.00 0.00 28 1024.0
20260502140106 21 0.0 0.0 0.00 0.00 0.00 26 1024.6
20260502130115 21 0.0 0.0 0.00 0.00 0.00 25 1025.2
20260502123119 21 0.0 0.0 0.00 0.00 0.00 25 1025.5
20260502122120 21 0.0 0.0 0.00 0.00 0.00 26 1025.6
20260502121122 21 0.0 0.0 0.00 0.00 0.00 25 1025.8
20260502120123 21 0.0 0.0 0.00 0.00 0.00 26 1025.8
20260502115125 21 0.0 0.0 0.00 0.00 0.00 27 1025.9
20260502114126 22 0.0 0.0 0.00 0.00 0.00 26 1026.0
20260502113128 23 0.0 0.0 0.00 0.00 0.00 26 1026.0
20260502112129 23 0.0 0.0 0.00 0.00 0.00 26 1026.1
20260502111130 23 0.0 0.0 0.00 0.00 0.00 27 1026.2
20260502110132 23 0.0 0.0 0.00 0.00 0.00 28 1026.3
20260502105133 22 0.0 0.0 0.00 0.00 0.00 31 1026.5
20260502104135 20 0.0 0.0 0.00 0.00 0.00 32 1026.4
20260502103136 20 0.0 0.0 0.00 0.00 0.00 33 1026.6
20260502102137 20 0.0 0.0 0.00 0.00 0.00 33 1026.7
20260502101139 21 0.0 0.0 0.00 0.00 0.00 33 1026.8
20260502100140 20 0.0 0.0 0.00 0.00 0.00 35 1026.9
20260502091147 22 0.0 0.0 0.00 0.00 0.00 41 1027.4
20260502090149 21 0.0 0.0 0.00 0.00 0.00 45 1027.4
20260502071201 18 0.0 0.0 0.00 0.00 0.00 66 1027.8
20260502070202 15 0.0 0.0 0.00 0.00 0.00 82 1027.9
20260502065204 15 0.0 0.0 0.00 0.00 0.00 84 1027.8
20260502064205 16 0.0 0.0 0.00 0.00 0.00 83 1027.8
20260502063206 15 0.0 0.0 0.00 0.00 0.00 89 1027.9
20260502062208 13 0.0 0.0 0.00 0.00 0.00 97 1027.9
20260502061209 13 0.0 0.0 0.00 0.00 0.00 99 1027.9
20260502060211 12 0.0 0.0 0.00 0.00 0.00 99 1027.8
20260502055212 12 0.0 0.0 0.00 0.00 0.00 99 1027.8
20260502054213 12 0.0 0.0 0.00 0.00 0.00 99 1027.7
20260502053214 12 0.0 0.0 0.00 0.00 0.00 99 1027.7
20260502052216 11 0.0 0.0 0.00 0.00 0.00 99 1027.8
20260502051217 11 0.0 0.0 0.00 0.00 0.00 99 1027.7
20260502050219 11 0.0 0.0 0.00 0.00 0.00 99 1027.8
20260502045220 11 0.0 0.0 0.00 0.00 0.00 99 1027.7
20260502044221 11 0.0 0.0 0.00 0.00 0.00 99 1027.6
20260502043223 11 0.0 0.0 0.00 0.00 0.00 99 1027.6
20260502042224 11 0.0 0.0 0.00 0.00 0.00 99 1027.6
20260502041225 11 0.0 0.0 0.00 0.00 0.00 99 1027.6
20260502040227 10 0.0 0.0 0.00 0.00 0.00 99 1027.5
20260502035228 10 0.0 0.0 0.00 0.00 0.00 99 1027.5
20260502034229 10 0.0 0.0 0.00 0.00 0.00 99 1027.5
20260502033228 10 0.0 0.0 0.00 0.00 0.00 99 1027.6
20260502032225 10 0.0 0.0 0.00 0.00 0.00 99 1027.6
20260502031226 11 0.0 0.0 0.00 0.00 0.00 99 1027.6
20260502030228 11 0.0 0.0 0.00 0.00 0.00 99 1027.6
20260502025227 10 0.0 0.0 0.00 0.00 0.00 99 1027.7
20260502024226 10 0.0 0.0 0.00 0.00 0.00 99 1027.7
20260502023228 11 0.0 0.0 0.00 0.00 0.00 99 1027.7
20260502022225 11 0.0 0.0 0.00 0.00 0.00 99 1027.7
20260502021226 11 0.0 0.0 0.00 0.00 0.00 99 1027.7
20260502020228 11 0.0 0.0 0.00 0.00 0.00 99 1027.8
20260502015225 11 0.0 0.0 0.00 0.00 0.00 99 1027.8
20260502014226 11 0.0 0.0 0.00 0.00 0.00 99 1027.9
20260502013228 11 0.0 0.0 0.00 0.00 0.00 99 1027.9
20260502012225 11 0.0 0.0 0.00 0.00 0.00 99 1028.0
20260502011226 11 0.0 0.0 0.00 0.00 0.00 99 1028.1
20260502010228 11 0.0 0.0 0.00 0.00 0.00 99 1028.1
20260502005227 11 0.0 0.0 0.00 0.00 0.00 99 1028.2
20260502004226 11 0.0 0.0 0.00 0.00 0.00 99 1028.3
20260502003228 11 0.0 0.0 0.00 0.00 0.00 99 1028.4
20260502002226 10 0.0 0.0 0.00 0.00 0.00 99 1028.5
20260502001227 10 0.0 0.0 0.00 0.00 0.00 99 1028.5
20260502000228 10 0.0 0.0 0.00 0.00 0.00 99 1028.5
20260501235230 11 0.0 0.0 0.00 0.00 0.00 99 1028.5
20260501234231 11 0.0 0.0 0.00 0.00 0.00 99 1028.6
20260501233233 11 0.0 0.0 0.00 0.00 0.00 99 1028.6
20260501232234 11 0.0 0.0 0.00 0.00 0.00 99 1028.6
20260501231234 11 0.0 0.0 0.00 0.00 0.00 95 1028.7
20260501230235 12 0.0 0.0 0.00 0.00 0.00 90 1028.7
20260501225236 12 0.0 0.0 0.00 0.00 0.00 89 1028.8
20260501224238 12 0.0 0.0 0.00 0.00 0.00 90 1028.8
20260501223239 12 0.0 0.0 0.00 0.00 0.00 90 1028.8
20260501222240 12 0.0 0.0 0.00 0.00 0.00 89 1028.8
20260501221242 12 0.0 0.0 0.00 0.00 0.00 90 1028.9
20260501220243 12 0.0 0.0 0.00 0.00 0.00 91 1029.0
20260501215244 11 0.0 0.0 0.00 0.00 0.00 92 1028.9
20260501214246 11 0.0 0.0 0.00 0.00 0.00 93 1028.9
20260501213247 11 0.0 0.0 0.00 0.00 0.00 92 1029.0
20260501212248 11 0.0 0.0 0.00 0.00 0.00 91 1029.0
20260501211250 11 0.0 0.0 0.00 0.00 0.00 91 1028.9
20260501210251 11 0.0 0.0 0.00 0.00 0.00 91 1029.0
20260501205252 11 0.0 0.0 0.00 0.00 0.00 91 1029.0
20260501204252 11 0.0 0.0 0.00 0.00 0.00 89 1029.0
20260501203254 12 0.0 0.0 0.00 0.00 0.00 86 1029.0
20260501202255 12 0.0 0.0 0.00 0.00 0.00 85 1029.0
20260501201256 12 0.0 0.0 0.00 0.00 0.00 85 1029.0
20260501200258 12 0.0 0.0 0.00 0.00 0.00 85 1029.0